Tracking 19847 objects as of 15-Sep-2019
HD Live streaming from Space Station
objects crossing your sky now

FENGYUN 1C DEB

Track FENGYUN 1C DEB now!
10-day predictions


NORAD ID: 31038
Int'l Code: 1999-025BEG
Perigee: 703.3 km
Apogee: 840.4 km
Inclination: 99.0 °
Period: 100.1 minutes
Semi major axis: 7142 km
RCS: 0.0091 m2 (small)
Launch date: May 10, 1999
Source: People's Republic of China (PRC)
Launch site: Taiyaun Space Center, China (TSC)

Note: This is SATELLITE DEBRIS
aabbcc
Your satellite tracking list
Your tracking list is empty




NASA's NSSDC Master Catalog

Two Line Element Set (TLE):
1 31038U 99025BEG 19257.57984640 +.00000181 +00000-0 +72010-4 0  9991
2 31038 098.9989 176.3502 0095993 112.3117 248.8278 14.38129393653954
Source of the keplerian elements: AFSPC